Overview Statistics Trail Chart Weather Telemetry Raw packets
 

This is the latest recevied weather packets stored in our database for station/object LU3GHF-13. If no packets are shown the sender has not sent any weather packets the latest 10 day(s).

<< 16 17 18 19 20 21 22 >>
Time Temp. Humidity Pressure Rain* Wind** Luminosity Snow
1788367161 27.22° C 63% 1009.1 hPa - - - -
1788366510 27.22° C 64% 1009.3 hPa - - - -
1788365878 26.11° C 65% 1009.5 hPa - - - -
1788365221 26.67° C 64% 1009.7 hPa - - - -
1788364569 25° C 67% 1010.1 hPa - - - -
1788363939 25.56° C 68% 1010.5 hPa - - - -
1788363321 25° C 70% 1010.6 hPa - - - -
1788362699 24.44° C 69% 1010.9 hPa - - - -
1788362054 24.44° C 72% 1011.3 hPa - - - -
1788361431 23.89° C 75% 1011.6 hPa - - - -
1788360821 23.33° C 75% 1011.7 hPa - - - -
1788360197 22.78° C 76% 1011.9 hPa - - - -
1788359559 22.78° C 79% 1012.1 hPa - - - -
1788358916 22.78° C 80% 1012.2 hPa - - - -
1788358264 21.67° C 81% 1012.4 hPa - - - -
1788357663 21.67° C 84% 1012.5 hPa - - - -
1788357052 21.67° C 85% 1012.6 hPa - - - -
1788356450 20.56° C 87% 1012.7 hPa - - - -
1788355809 20.56° C 88% 1012.8 hPa - - - -
1788355162 20° C 90% 1012.9 hPa - - - -
1788354558 20° C 91% 1012.9 hPa - - - -
1788353917 19.44° C 92% 1013 hPa - - - -
1788353276 19.44° C 93% 1013.1 hPa - - - -
1788352645 18.89° C 94% 1013.3 hPa - - - -
1788351342 18.89° C 93% 1013.3 hPa - - - -

* Rain since midnight (hover to see other rain measurements)
** Current wind speed in m/s (hover to see current wind gust speed)